Location: Bord�res
(43.2000°N, 0.2167°W)
Time: 11:46:12
(UTC+00:00)

Cosmos 2333 Rocket - Pass Details

Date: 03 March 2021
Orbit: 837 x 864 km, 70.8° (Epoch: 20 April)

Event Time Altitude Azimuth Distance (km) Brightness Sun altitude
Rises 18:45:57 0° 167° (SSE) 3,382 5.2 -10.5°
Reaches altitude 10° 18:48:47 10° 154° (SSE) 2,456 4.4 -11.0°
Maximum altitude 18:53:13 24° 102° (ESE) 1,674 3.2 -11.8°
Drops below altitude 10° 18:57:42 10° 50° (NE) 2,484 4.2 -12.6°
Sets 19:00:35 0° 37° (NE) 3,430 5.0 -13.2°
